M I D A S
Marine Information and Data Acquisition System
Tripno 1958 of the Zeeleeuw from 2010-09-09 08:09:41 to 2010-09-09 16:25:01
Back to CruiseResearch ActivitiesStationsMapUnderway DataData graphs

EquipmentUnitsComments
TimeDGPSUTC
LatitudeDGPSDM.mWGS84
LongitudeDGPSDM.mWGS84
SpeedMeteo Stationm/sRelative wind speed
DirectionMeteo StationdegRelative wind direction
TemperatureMeteo Stationdeg CelciusAir temperature
PressureMeteo StationPaAtmospheric pressure
HumidityMeteo Station%Relative humidity
Missing or incorrect values are displayed as -999
Metereological data collected by the RV Zeeleeuw from 2010-09-09 06:27:41 to 2010-09-09 16:33:28
Time Latitude Longitude Speed Direction Temperature Pressure Humidity
2010-09-09 06:28 51°13.666 2°55.945 0.5 82 14.7 101120 46
2010-09-09 06:29 51°13.687 2°55.861 2.2 81 14.7 101120 48
2010-09-09 06:30 51°13.69 2°55.761 1.8 77 14.7 101120 48
2010-09-09 06:31 51°13.698 2°55.745 0.1 79 14.7 101120 48
2010-09-09 06:32 51°13.745 2°55.719 0.1 287 14.7 101120 46
2010-09-09 06:33 51°13.846 2°55.614 1.5 285 14.7 101130 48
2010-09-09 06:34 51°13.988 2°55.521 2.6 283 14.7 101120 45
2010-09-09 06:35 51°14.14 2°55.417 3.8 283 14.8 101120 46
2010-09-09 06:36 51°14.283 2°55.275 4.2 285 15 101120 48
2010-09-09 06:37 51°14.432 2°55.137 5.4 278 15.1 101120 46
2010-09-09 06:38 51°14.594 2°54.965 9.2 277 15.2 101120 47
2010-09-09 06:39 51°14.758 2°54.738 11.2 282 15.3 101100 46
2010-09-09 06:40 51°14.922 2°54.519 9.6 282 15.5 101100 47
2010-09-09 06:41 51°15.097 2°54.336 10.4 279 15.7 101110 47
2010-09-09 06:42 51°15.264 2°54.131 10 283 15.9 101100 47
2010-09-09 06:43 51°15.441 2°53.925 10.6 279 16 101100 47
2010-09-09 06:44 51°15.617 2°53.736 9.7 280 16.1 101100 47
2010-09-09 06:45 51°15.796 2°53.546 10.4 278 16.2 101100 48
2010-09-09 06:46 51°15.988 2°53.384 9.1 284 16.3 101100 48
2010-09-09 06:47 51°16.179 2°53.245 9.2 284 16.4 101100 47
2010-09-09 06:48 51°16.366 2°53.108 9.6 281 16.4 101100 47
2010-09-09 06:49 51°16.56 2°52.964 9.2 279 16.5 101100 48
2010-09-09 06:50 51°16.752 2°52.835 9.3 304 16.6 101100 47
2010-09-09 06:51 51°16.938 2°52.732 9.5 282 16.6 101110 47
2010-09-09 06:52 51°17.135 2°52.632 8.8 304 16.6 101100 46
2010-09-09 06:53 51°17.327 2°52.561 7.7 284 16.6 101100 47
2010-09-09 06:54 51°17.506 2°52.674 5.4 282 16.6 101120 46
2010-09-09 06:55 51°17.636 2°52.893 3.9 279 16.7 101130 45
2010-09-09 06:56 51°17.772 2°53.118 4.5 286 16.6 101120 45
2010-09-09 06:57 51°17.924 2°53.304 5.1 283 16.7 101130 45
2010-09-09 06:58 51°18.076 2°53.481 5.4 309 16.7 101130 45
2010-09-09 06:59 51°18.235 2°53.662 4.9 283 16.7 101130 45
2010-09-09 07:00 51°18.394 2°53.832 6 280 16.7 101130 45
2010-09-09 07:01 51°18.558 2°53.989 5.4 280 16.7 101130 46
2010-09-09 07:02 51°18.724 2°54.144 5.6 283 16.7 101130 45
2010-09-09 07:03 51°18.886 2°54.308 5.1 303 16.7 101130 45
2010-09-09 07:04 51°19.038 2°54.494 4.8 304 16.8 101140 45
2010-09-09 07:05 51°19.19 2°54.681 4.7 286 16.8 101140 45
2010-09-09 07:06 51°19.343 2°54.868 3.6 301 16.8 101140 47
2010-09-09 07:07 51°19.496 2°55.054 4.1 284 16.8 101140 45
2010-09-09 07:08 51°19.648 2°55.238 4.5 307 16.9 101140 45
2010-09-09 07:09 51°19.8 2°55.421 3.7 284 16.8 101140 47
2010-09-09 07:10 51°19.954 2°55.604 5.4 284 16.9 101140 46
2010-09-09 07:11 51°20.104 2°55.782 3.9 282 16.9 101140 47
2010-09-09 07:12 51°20.257 2°55.967 4.2 284 16.9 101140 45
2010-09-09 07:13 51°20.41 2°56.146 4.9 283 16.9 101140 47
2010-09-09 07:14 51°20.562 2°56.324 5.2 278 16.9 101140 45
2010-09-09 07:15 51°20.714 2°56.505 4.5 278 16.9 101140 45
2010-09-09 07:16 51°20.868 2°56.683 4.7 283 16.9 101140 45
2010-09-09 07:17 51°21.022 2°56.861 4.4 286 16.9 101150 45
2010-09-09 07:18 51°21.176 2°57.039 5.2 285 16.9 101150 46
2010-09-09 07:19 51°21.331 2°57.216 4.8 303 16.9 101150 47
2010-09-09 07:20 51°21.484 2°57.393 5.3 280 16.9 101150 47
2010-09-09 07:21 51°21.636 2°57.571 5 283 16.9 101160 47
2010-09-09 07:22 51°21.784 2°57.747 5.2 284 16.9 101150 45
2010-09-09 07:23 51°21.938 2°57.929 4.4 277 16.9 101150 45
2010-09-09 07:24 51°22.086 2°58.108 5.2 302 17 101160 47
2010-09-09 07:25 51°22.236 2°58.292 4.6 303 16.9 101160 45
2010-09-09 07:26 51°22.389 2°58.481 5.1 301 17 101160 46
2010-09-09 07:27 51°22.538 2°58.664 4.2 284 17 101160 45
2010-09-09 07:28 51°22.691 2°58.854 3.3 301 17 101160 47
2010-09-09 07:29 51°22.838 2°59.039 3.2 309 17 101160 46
2010-09-09 07:30 51°22.991 2°59.229 4.3 280 17 101160 46
2010-09-09 07:31 51°23.142 2°59.407 3.7 279 16.9 101160 45
2010-09-09 07:32 51°23.292 2°59.584 3 279 16.9 101170 47
2010-09-09 07:33 51°23.441 2°59.763 3 278 17 101170 47
2010-09-09 07:34 51°23.594 2°59.918 7.7 300 17 101160 45
2010-09-09 07:35 51°23.789 2°59.915 7.4 307 17 101150 46
2010-09-09 07:36 51°23.983 2°59.951 6.9 307 16.9 101150 47
2010-09-09 07:37 51°24.169 3°0.046 4.6 284 17 101160 45
2010-09-09 07:38 51°24.342 3°0.17 5.6 278 17 101160 45
2010-09-09 07:39 51°24.52 3°0.3 5.1 284 17 101170 45
2010-09-09 07:40 51°24.69 3°0.441 5.3 277 17 101170 47
2010-09-09 07:41 51°24.87 3°0.591 5.2 280 16.9 101170 45
2010-09-09 07:42 51°25.045 3°0.74 5.6 306 16.9 101170 45
2010-09-09 07:43 51°25.218 3°0.89 5.4 277 16.9 101170 46
2010-09-09 07:44 51°25.392 3°1.038 5.1 308 16.9 101170 46
2010-09-09 07:45 51°25.566 3°1.183 4.4 282 17 101170 46
2010-09-09 07:46 51°25.732 3°1.341 4.4 282 17 101180 45
2010-09-09 07:47 51°25.888 3°1.51 4.2 307 17 101180 46
2010-09-09 07:48 51°26.043 3°1.682 3.6 306 17 101180 47
2010-09-09 07:49 51°26.196 3°1.848 3.9 280 17 101180 46
2010-09-09 07:50 51°26.351 3°2.019 2.6 284 17.1 101190 46
2010-09-09 07:51 51°26.501 3°2.18 5 283 17.1 101180 45
2010-09-09 07:52 51°26.65 3°2.353 4 284 17.1 101190 45
2010-09-09 07:53 51°26.795 3°2.545 3.7 281 17.1 101190 45
2010-09-09 07:54 51°26.931 3°2.736 3.5 278 17.1 101190 47
2010-09-09 07:55 51°27.068 3°2.944 2.7 283 17.1 101190 47
2010-09-09 07:56 51°27.196 3°3.152 3.3 284 17.1 101190 46
2010-09-09 07:57 51°27.318 3°3.385 2.8 285 17.1 101190 45
2010-09-09 07:58 51°27.44 3°3.613 2.8 285 17.1 101190 47
2010-09-09 07:59 51°27.566 3°3.844 2.4 284 17.2 101190 47
2010-09-09 08:00 51°27.692 3°4.071 1.4 277 17.2 101190 46
2010-09-09 08:01 51°27.794 3°4.334 0.2 287 17.2 101190 46
2010-09-09 08:02 51°27.909 3°4.576 0.5 282 17.2 101190 47
2010-09-09 08:03 51°28.029 3°4.811 0.7 286 17.2 101190 48
2010-09-09 08:04 51°28.146 3°5.042 1.5 282 17.2 101190 46
2010-09-09 08:05 51°28.267 3°5.28 1.4 281 17.2 101180 48
2010-09-09 08:06 51°28.387 3°5.517 1.1 277 17.2 101190 46
2010-09-09 08:07 51°28.488 3°5.739 0.6 76 17.2 101190 46
2010-09-09 08:08 51°28.518 3°5.893 1.3 83 17.3 101190 48
2010-09-09 08:09 51°28.546 3°6.009 4.1 76 17.4 101190 46
2010-09-09 08:10 51°28.575 3°6.108 4.3 77 17.3 101190 48
2010-09-09 08:11 51°28.557 3°6.139 6.7 34 17.2 101180 46
2010-09-09 08:12 51°28.54 3°6.116 6.7 30 17.2 101180 46
2010-09-09 08:13 51°28.523 3°6.096 6.3 33 17.1 101180 47
2010-09-09 08:14 51°28.505 3°6.08 5.9 32 17.1 101190 47
2010-09-09 08:15 51°28.485 3°6.064 6.6 33 17 101190 45
2010-09-09 08:16 51°28.464 3°6.05 6.6 26 17 101190 46
2010-09-09 08:17 51°28.44 3°6.035 6.4 24 17 101190 47
2010-09-09 08:18 51°28.415 3°6.022 6.2 20 17 101190 47
2010-09-09 08:19 51°28.388 3°6.007 6.2 16 17 101200 45
2010-09-09 08:20 51°28.344 3°6.028 3.9 42 17 101190 47
2010-09-09 08:21 51°28.367 3°6.125 3.8 284 17.1 101200 48
2010-09-09 08:22 51°28.497 3°6.129 6.4 279 17.1 101190 47
2010-09-09 08:23 51°28.582 3°6.153 4.3 82 17.2 101210 46
2010-09-09 08:24 51°28.585 3°6.183 2.8 75 17.2 101210 48
2010-09-09 08:25 51°28.57 3°6.201 1.6 78 17.4 101210 46
2010-09-09 08:26 51°28.56 3°6.207 5.3 80 17.4 101220 47
2010-09-09 08:27 51°28.551 3°6.203 6 78 17.3 101220 47
2010-09-09 08:28 51°28.552 3°6.21 4.5 76 17.2 101210 45
2010-09-09 08:29 51°28.513 3°6.301 6 13 17.3 101220 46
2010-09-09 08:30 51°28.376 3°6.288 9.8 285 17.2 101210 46
2010-09-09 08:31 51°28.226 3°6.075 10.4 280 17.2 101190 46
2010-09-09 08:32 51°28.104 3°5.884 8.3 285 17.2 101200 46
2010-09-09 08:33 51°28.115 3°5.753 7.1 281 17.2 101210 47
2010-09-09 08:34 51°28.167 3°5.736 3.6 284 17.1 101220 47
2010-09-09 08:35 51°28.216 3°5.752 4.6 278 17.2 101220 48
2010-09-09 08:36 51°28.264 3°5.77 3.9 283 17.2 101220 47
2010-09-09 08:37 51°28.303 3°5.818 3.7 78 17.2 101230 46
2010-09-09 08:38 51°28.338 3°5.852 5 284 17.3 101230 48
2010-09-09 08:39 51°28.373 3°5.876 3.4 278 17.2 101230 46
2010-09-09 08:40 51°28.407 3°5.901 5.7 79 17.2 101230 46
2010-09-09 08:41 51°28.437 3°5.944 5 74 17.2 101230 47
2010-09-09 08:42 51°28.472 3°5.986 5.2 279 17.2 101230 46
2010-09-09 08:43 51°28.512 3°6.018 3.2 75 17.2 101230 46
2010-09-09 08:44 51°28.542 3°6.074 4.5 82 17.2 101240 46
2010-09-09 08:45 51°28.575 3°6.127 5.6 58 17.2 101240 46
2010-09-09 08:46 51°28.612 3°6.17 5.1 57 17.2 101240 46
2010-09-09 08:47 51°28.644 3°6.222 5.5 57 17.2 101240 46
2010-09-09 08:48 51°28.678 3°6.274 4.8 60 17.2 101240 46
2010-09-09 08:49 51°28.719 3°6.307 6 54 17.3 101240 46
2010-09-09 08:50 51°28.759 3°6.343 4.8 58 17.2 101240 46
2010-09-09 08:51 51°28.776 3°6.413 2.7 51 17.2 101240 48
2010-09-09 08:52 51°28.772 3°6.499 4.4 54 17.4 101250 46
2010-09-09 08:53 51°28.733 3°6.581 6.8 28 17.4 101250 46
2010-09-09 08:54 51°28.664 3°6.63 6.3 18 17.3 101250 48
2010-09-09 08:55 51°28.6 3°6.641 7.8 15 17.3 101240 46
2010-09-09 08:56 51°28.547 3°6.635 8.6 13 17.3 101240 46
2010-09-09 08:57 51°28.503 3°6.622 6.7 11 17.3 101240 47
2010-09-09 08:58 51°28.447 3°6.631 5.7 36 17.2 101240 48
2010-09-09 08:59 51°28.44 3°6.702 5.1 312 17.3 101260 46
2010-09-09 09:00 51°28.494 3°6.633 10 305 17.3 101240 46
2010-09-09 09:01 51°28.603 3°6.445 9.8 308 17.3 101220 47
2010-09-09 09:02 51°28.768 3°6.266 9.1 309 17.3 101220 46
2010-09-09 09:03 51°28.961 3°6.212 8 306 17.3 101230 46
2010-09-09 09:04 51°29.156 3°6.232 7.5 307 17.3 101230 47
2010-09-09 09:05 51°29.351 3°6.249 7.3 306 17.3 101230 47
2010-09-09 09:06 51°29.524 3°6.289 6.6 305 17.3 101240 47
2010-09-09 09:07 51°29.649 3°6.425 1 309 17.3 101250 47
2010-09-09 09:08 51°29.69 3°6.539 2.9 58 17.4 101250 47
2010-09-09 09:09 51°29.67 3°6.571 5.6 38 17.4 101270 47
2010-09-09 09:10 51°29.647 3°6.556 6.4 31 17.4 101260 46
2010-09-09 09:11 51°29.624 3°6.541 6.2 28 17.3 101260 47
2010-09-09 09:12 51°29.601 3°6.525 6.7 22 17.3 101270 46
2010-09-09 09:13 51°29.577 3°6.511 7.4 17 17.3 101260 46
2010-09-09 09:14 51°29.554 3°6.498 6.3 15 17.3 101260 46
2010-09-09 09:15 51°29.521 3°6.484 6 5 17.3 101260 46
2010-09-09 09:16 51°29.461 3°6.402 8 329 17.2 101250 47
2010-09-09 09:17 51°29.466 3°6.298 9.4 308 17.2 101240 47
2010-09-09 09:18 51°29.499 3°6.298 5 59 17.2 101260 46
2010-09-09 09:19 51°29.548 3°6.342 4.8 305 17.2 101270 46
2010-09-09 09:20 51°29.589 3°6.373 5.4 302 17.2 101270 46
2010-09-09 09:21 51°29.599 3°6.375 5.6 309 17.3 101270 46
2010-09-09 09:22 51°29.599 3°6.369 5.2 302 17.3 101270 46
2010-09-09 09:23 51°29.592 3°6.356 5.4 300 17.3 101270 48
2010-09-09 09:24 51°29.595 3°6.348 5.2 56 17.3 101270 48
2010-09-09 09:25 51°29.625 3°6.392 5.2 301 17.3 101270 46
2010-09-09 09:26 51°29.664 3°6.448 4.5 52 17.2 101270 48
2010-09-09 09:27 51°29.697 3°6.501 3.6 304 17.3 101270 46
2010-09-09 09:28 51°29.728 3°6.556 5.1 309 17.3 101270 46
2010-09-09 09:29 51°29.761 3°6.61 4.9 15 17.2 101270 46
2010-09-09 09:30 51°29.798 3°6.659 4.3 310 17.2 101260 47
2010-09-09 09:31 51°29.836 3°6.718 4.5 310 17.2 101270 46
2010-09-09 09:32 51°29.874 3°6.779 3.3 303 17.2 101270 46
2010-09-09 09:33 51°29.912 3°6.84 5 307 17.2 101270 46
2010-09-09 09:34 51°29.95 3°6.9 5.2 307 17.2 101270 46
2010-09-09 09:35 51°29.985 3°6.958 5 305 17.1 101270 47
2010-09-09 09:36 51°30.019 3°7.015 5.6 309 17.1 101280 46
2010-09-09 09:37 51°30.051 3°7.076 5.1 58 17.1 101270 46
2010-09-09 09:38 51°30.078 3°7.142 4.7 59 17.1 101270 46
2010-09-09 09:39 51°30.093 3°7.219 4.3 55 17.2 101270 46
2010-09-09 09:40 51°30.089 3°7.301 3.6 58 17.2 101270 46
2010-09-09 09:41 51°30.063 3°7.367 5.4 45 17.3 101280 46
2010-09-09 09:42 51°30.025 3°7.404 6.7 37 17.3 101280 46
2010-09-09 09:43 51°29.985 3°7.419 6.4 34 17.3 101290 46
2010-09-09 09:44 51°29.941 3°7.447 5.2 55 17.3 101290 46
2010-09-09 09:45 51°29.948 3°7.5 6.8 306 17.3 101280 46
2010-09-09 09:46 51°29.984 3°7.429 9.5 302 17.3 101270 46
2010-09-09 09:47 51°30.014 3°7.194 10.6 306 17.3 101260 47
2010-09-09 09:48 51°30.007 3°6.838 12 328 17.3 101250 46
2010-09-09 09:49 51°30.039 3°6.479 12.2 321 17.3 101250 46
2010-09-09 09:50 51°30.114 3°6.138 12 305 17.4 101250 46
2010-09-09 09:51 51°30.194 3°5.803 13.1 308 17.4 101260 47
2010-09-09 09:52 51°30.273 3°5.466 13.8 304 17.4 101260 47
2010-09-09 09:53 51°30.344 3°5.163 10.7 305 17.3 101250 47
2010-09-09 09:54 51°30.384 3°5.049 7.3 304 17.3 101260 46
2010-09-09 09:55 51°30.38 3°5.031 5.8 64 17.3 101280 48
2010-09-09 09:56 51°30.37 3°5.025 6 311 17.4 101280 49
2010-09-09 09:57 51°30.358 3°5.015 5.3 307 17.3 101280 48
2010-09-09 09:58 51°30.343 3°5.001 4.8 307 17.3 101290 46
2010-09-09 09:59 51°30.327 3°4.987 6.6 305 17.3 101290 47
2010-09-09 10:00 51°30.309 3°4.975 7.2 304 17.3 101290 46
2010-09-09 10:01 51°30.289 3°4.963 6.5 307 17.3 101290 48
2010-09-09 10:02 51°30.271 3°4.952 7.6 310 17.4 101290 48
2010-09-09 10:03 51°30.253 3°4.942 8 305 17.5 101290 47
2010-09-09 10:04 51°30.249 3°4.928 7 302 17.5 101290 45
2010-09-09 10:05 51°30.292 3°4.885 8.5 307 17.5 101290 47
2010-09-09 10:06 51°30.346 3°4.851 7 302 17.4 101290 46
2010-09-09 10:07 51°30.393 3°4.832 7.7 307 17.4 101300 46
2010-09-09 10:08 51°30.438 3°4.833 5.1 301 17.5 101300 46
2010-09-09 10:09 51°30.479 3°4.85 4.5 304 17.4 101310 48
2010-09-09 10:10 51°30.514 3°4.885 3.8 301 17.4 101300 46
2010-09-09 10:11 51°30.548 3°4.922 5.9 56 17.4 101300 46
2010-09-09 10:12 51°30.584 3°4.959 5.7 304 17.3 101300 45
2010-09-09 10:13 51°30.621 3°4.991 4.4 306 17.2 101310 48
2010-09-09 10:14 51°30.657 3°5.025 6 310 17.2 101300 47
2010-09-09 10:15 51°30.695 3°5.058 4.9 307 17.2 101300 46
2010-09-09 10:16 51°30.732 3°5.09 5.3 308 17.2 101310 46
2010-09-09 10:17 51°30.77 3°5.123 5 53 17.2 101310 48
2010-09-09 10:18 51°30.808 3°5.156 5.2 302 17.1 101310 48
2010-09-09 10:19 51°30.844 3°5.191 5.1 301 17.2 101310 46
2010-09-09 10:20 51°30.882 3°5.225 5.3 307 17.1 101310 46
2010-09-09 10:21 51°30.921 3°5.259 5 307 17.2 101310 46
2010-09-09 10:22 51°30.959 3°5.292 5.8 304 17.1 101310 44
2010-09-09 10:23 51°30.995 3°5.328 5.3 48 17.2 101310 46
2010-09-09 10:24 51°31.021 3°5.38 5 60 17.2 101320 47
2010-09-09 10:25 51°31.029 3°5.454 1.9 60 17.1 101310 46
2010-09-09 10:26 51°31.006 3°5.535 4.8 42 17.2 101310 48
2010-09-09 10:27 51°30.96 3°5.594 6.1 32 17.2 101320 46
2010-09-09 10:28 51°30.914 3°5.619 5.6 26 17.2 101320 45
2010-09-09 10:29 51°30.872 3°5.627 5.9 23 17.2 101320 47
2010-09-09 10:30 51°30.835 3°5.628 6.1 19 17.2 101300 46
2010-09-09 10:31 51°30.786 3°5.622 5.7 2 17.1 101310 46
2010-09-09 10:32 51°30.73 3°5.573 7.4 337 17.1 101310 46
2010-09-09 10:33 51°30.711 3°5.48 8.1 303 17.1 101310 47
2010-09-09 10:34 51°30.755 3°5.427 7.5 308 17.2 101310 46
2010-09-09 10:35 51°30.86 3°5.401 9.2 301 17.3 101320 46
2010-09-09 10:36 51°30.998 3°5.346 7.7 306 17.3 101310 46
2010-09-09 10:37 51°31.143 3°5.313 7.6 307 17.3 101310 46
2010-09-09 10:38 51°31.29 3°5.288 9.4 310 17.4 101310 47
2010-09-09 10:39 51°31.439 3°5.27 7.7 307 17.4 101320 46
2010-09-09 10:40 51°31.539 3°5.263 7.1 309 17.4 101330 48
2010-09-09 10:41 51°31.583 3°5.233 8 309 17.5 101320 46
2010-09-09 10:42 51°31.602 3°5.206 7.1 303 17.4 101320 47
2010-09-09 10:43 51°31.609 3°5.189 7.6 304 17.5 101330 47
2010-09-09 10:44 51°31.605 3°5.184 7.6 309 17.5 101320 45
2010-09-09 10:45 51°31.595 3°5.185 7.6 301 17.5 101330 47
2010-09-09 10:46 51°31.584 3°5.19 6.4 309 17.5 101350 46
2010-09-09 10:47 51°31.573 3°5.195 3.8 309 17.5 101340 46
2010-09-09 10:48 51°31.56 3°5.2 4.5 307 17.5 101340 47
2010-09-09 10:49 51°31.547 3°5.205 5.4 301 17.5 101340 46
2010-09-09 10:50 51°31.534 3°5.213 5.6 303 17.4 101350 46
2010-09-09 10:51 51°31.52 3°5.22 6 300 17.4 101350 47
2010-09-09 10:52 51°31.506 3°5.227 4.5 304 17.3 101350 46
2010-09-09 10:53 51°31.493 3°5.234 5.6 300 17.4 101350 48
2010-09-09 10:54 51°31.481 3°5.241 4.1 302 17.4 101350 46
2010-09-09 10:55 51°31.471 3°5.249 4.9 305 17.4 101350 47
2010-09-09 10:56 51°31.462 3°5.257 6.4 307 17.4 101350 46
2010-09-09 10:57 51°31.452 3°5.267 6.2 309 17.3 101350 46
2010-09-09 10:58 51°31.441 3°5.277 5.9 304 17.3 101350 48
2010-09-09 10:59 51°31.43 3°5.289 5.9 302 17.3 101350 46
2010-09-09 11:00 51°31.419 3°5.3 5.2 263 17.4 101360 46
2010-09-09 11:01 51°31.408 3°5.313 4.7 302 17.4 101360 48
2010-09-09 11:02 51°31.397 3°5.325 4.1 307 17.4 101360 46
2010-09-09 11:03 51°31.386 3°5.337 4.8 303 17.4 101360 47
2010-09-09 11:04 51°31.376 3°5.349 4.8 306 17.4 101360 48
2010-09-09 11:05 51°31.366 3°5.362 5.4 307 17.4 101370 46
2010-09-09 11:06 51°31.356 3°5.377 5.9 306 17.3 101370 46
2010-09-09 11:07 51°31.346 3°5.392 5.5 303 17.3 101370 47
2010-09-09 11:08 51°31.335 3°5.407 5.5 307 17.3 101370 46
2010-09-09 11:09 51°31.325 3°5.425 5.1 309 17.3 101370 46
2010-09-09 11:10 51°31.315 3°5.442 5.9 307 17.3 101370 46
2010-09-09 11:11 51°31.306 3°5.46 4.8 307 17.3 101370 46
2010-09-09 11:12 51°31.298 3°5.477 5.6 306 17.3 101370 47
2010-09-09 11:13 51°31.29 3°5.495 5.2 307 17.4 101360 46
2010-09-09 11:14 51°31.283 3°5.514 5.1 300 17.4 101370 47
2010-09-09 11:15 51°31.276 3°5.532 6.9 308 17.4 101370 47
2010-09-09 11:16 51°31.271 3°5.552 6.8 305 17.4 101370 46
2010-09-09 11:17 51°31.265 3°5.573 7.9 303 17.4 101370 46
2010-09-09 11:18 51°31.29 3°5.574 7.7 302 17.5 101370 46
2010-09-09 11:19 51°31.391 3°5.484 9 307 17.5 101350 46
2010-09-09 11:20 51°31.49 3°5.258 10.8 307 17.4 101310 46
2010-09-09 11:21 51°31.582 3°5.002 11.3 304 17.4 101330 47
2010-09-09 11:22 51°31.662 3°4.835 7.9 306 17.3 101340 47
2010-09-09 11:23 51°31.696 3°4.799 6.3 303 17.3 101370 47
2010-09-09 11:24 51°31.707 3°4.809 7.5 304 17.3 101370 47
2010-09-09 11:25 51°31.716 3°4.826 6.4 306 17.4 101360 47
2010-09-09 11:26 51°31.722 3°4.845 6.7 249 17.4 101370 47
2010-09-09 11:27 51°31.726 3°4.866 6.6 308 17.5 101370 47
2010-09-09 11:28 51°31.729 3°4.89 7.9 310 17.5 101380 46
2010-09-09 11:29 51°31.732 3°4.918 6.4 308 17.4 101370 46
2010-09-09 11:30 51°31.733 3°4.95 6.7 309 17.5 101370 46
2010-09-09 11:31 51°31.735 3°4.982 6 260 17.5 101370 46
2010-09-09 11:32 51°31.737 3°5.016 6.1 307 17.6 101370 47
2010-09-09 11:33 51°31.739 3°5.051 6.1 308 17.5 101380 47
2010-09-09 11:34 51°31.742 3°5.088 6.2 306 17.5 101380 47
2010-09-09 11:35 51°31.744 3°5.124 6.6 306 17.5 101370 47
2010-09-09 11:36 51°31.745 3°5.163 5.2 306 17.5 101380 46
2010-09-09 11:37 51°31.748 3°5.202 4.3 305 17.5 101380 46
2010-09-09 11:38 51°31.751 3°5.24 5.2 308 17.5 101380 47
2010-09-09 11:39 51°31.754 3°5.279 6 301 17.5 101380 47
2010-09-09 11:40 51°31.757 3°5.318 4.8 309 17.5 101380 46
2010-09-09 11:41 51°31.759 3°5.358 6 307 17.6 101380 47
2010-09-09 11:42 51°31.788 3°5.387 5.3 251 17.7 101380 46
2010-09-09 11:43 51°31.848 3°5.453 1.8 58 17.7 101380 47
2010-09-09 11:44 51°31.838 3°5.583 5.4 17 17.7 101390 47
2010-09-09 11:45 51°31.775 3°5.618 6.8 346 17.5 101390 46
2010-09-09 11:46 51°31.759 3°5.546 7.7 323 17.4 101370 48
2010-09-09 11:47 51°31.754 3°5.446 6.6 329 17.4 101380 47
2010-09-09 11:48 51°31.738 3°5.393 7 333 17.4 101380 47
2010-09-09 11:49 51°31.728 3°5.367 6.4 330 17.4 101380 47
2010-09-09 11:50 51°31.725 3°5.352 6.1 325 17.3 101380 46
2010-09-09 11:51 51°31.731 3°5.34 5.4 303 17.4 101380 46
2010-09-09 11:52 51°31.746 3°5.34 5.5 307 17.5 101380 46
2010-09-09 11:53 51°31.761 3°5.349 5.9 302 17.5 101370 47
2010-09-09 11:54 51°31.776 3°5.361 5.9 306 17.4 101370 46
2010-09-09 11:55 51°31.789 3°5.366 6.2 307 17.4 101380 47
2010-09-09 11:56 51°31.796 3°5.343 6.9 300 17.4 101380 46
2010-09-09 11:57 51°31.792 3°5.297 7 301 17.4 101370 46
2010-09-09 11:58 51°31.812 3°5.247 6.6 306 17.4 101380 47
2010-09-09 11:59 51°31.853 3°5.218 6.4 303 17.4 101370 48
2010-09-09 12:00 51°31.899 3°5.209 7.5 308 17.5 101370 46
2010-09-09 12:01 51°31.949 3°5.216 6.6 303 17.5 101380 48
2010-09-09 12:02 51°32.002 3°5.252 4.7 304 17.5 101380 46
2010-09-09 12:03 51°32.044 3°5.332 4.1 52 17.6 101380 46
2010-09-09 12:04 51°32.063 3°5.432 3.8 59 17.5 101390 47
2010-09-09 12:05 51°32.067 3°5.541 4.3 44 17.5 101390 47
2010-09-09 12:06 51°32.066 3°5.656 4.1 42 17.4 101390 47
2010-09-09 12:07 51°32.06 3°5.77 4 34 17.3 101400 46
2010-09-09 12:08 51°32.05 3°5.883 4.8 35 17.3 101400 46
2010-09-09 12:09 51°32.034 3°5.992 5.2 29 17.3 101390 47
2010-09-09 12:10 51°32.014 3°6.1 5.5 21 17.3 101390 46
2010-09-09 12:11 51°31.963 3°6.137 8.1 342 17.3 101390 47
2010-09-09 12:12 51°31.918 3°5.986 9.3 333 17.3 101370 46
2010-09-09 12:13 51°31.856 3°5.756 11.5 334 17.3 101370 46
2010-09-09 12:14 51°31.787 3°5.488 11.9 334 17.3 101360 47
2010-09-09 12:15 51°31.708 3°5.222 11.1 336 17.3 101360 46
2010-09-09 12:16 51°31.629 3°4.963 12.3 335 17.3 101360 46
2010-09-09 12:17 51°31.548 3°4.699 12.2 335 17.3 101360 47
2010-09-09 12:18 51°31.498 3°4.463 9 303 17.3 101370 47
2010-09-09 12:19 51°31.595 3°4.436 3 304 17.3 101370 46
2010-09-09 12:20 51°31.645 3°4.587 3.7 42 17.4 101390 46
2010-09-09 12:21 51°31.644 3°4.706 4.3 33 17.4 101400 48
2010-09-09 12:22 51°31.641 3°4.807 5.1 34 17.4 101410 46
2010-09-09 12:23 51°31.64 3°4.906 4.8 37 17.4 101400 48
2010-09-09 12:24 51°31.641 3°5.002 5.1 37 17.3 101410 46
2010-09-09 12:25 51°31.641 3°5.099 5.3 35 17.3 101400 47
2010-09-09 12:26 51°31.639 3°5.192 5.1 33 17.3 101400 47
2010-09-09 12:27 51°31.638 3°5.286 5.3 32 17.3 101410 47
2010-09-09 12:28 51°31.637 3°5.386 4.8 35 17.3 101410 46
2010-09-09 12:29 51°31.635 3°5.491 5 29 17.3 101410 46
2010-09-09 12:30 51°31.631 3°5.594 4.9 30 17.3 101410 47
2010-09-09 12:31 51°31.619 3°5.699 6.4 15 17.3 101420 46
2010-09-09 12:32 51°31.571 3°5.715 8.2 335 17.4 101410 48
2010-09-09 12:33 51°31.571 3°5.586 10.6 329 17.3 101400 47
2010-09-09 12:34 51°31.551 3°5.337 11 333 17.4 101390 46
2010-09-09 12:35 51°31.477 3°5.088 11.9 337 17.5 101380 48
2010-09-09 12:36 51°31.414 3°4.824 11.9 333 17.4 101380 46
2010-09-09 12:37 51°31.368 3°4.555 11.8 334 17.4 101380 47
2010-09-09 12:38 51°31.353 3°4.321 9.4 303 17.4 101390 48
2010-09-09 12:39 51°31.444 3°4.301 5.1 309 17.4 101400 47
2010-09-09 12:40 51°31.502 3°4.456 3.7 41 17.3 101420 47
2010-09-09 12:41 51°31.496 3°4.578 5.1 27 17.4 101420 46
2010-09-09 12:42 51°31.488 3°4.674 5.7 31 17.3 101420 46
2010-09-09 12:43 51°31.483 3°4.764 5.7 32 17.2 101420 46
2010-09-09 12:44 51°31.48 3°4.852 5.1 33 17.2 101420 46
2010-09-09 12:45 51°31.476 3°4.941 5.6 30 17.3 101420 47
2010-09-09 12:46 51°31.472 3°5.034 5.4 33 17.2 101420 46
2010-09-09 12:47 51°31.468 3°5.129 4.9 33 17.2 101410 46
2010-09-09 12:48 51°31.467 3°5.229 5.6 35 17.2 101420 46
2010-09-09 12:49 51°31.468 3°5.332 5.7 35 17.1 101410 47
2010-09-09 12:50 51°31.467 3°5.434 5.4 34 17.1 101420 46
2010-09-09 12:51 51°31.465 3°5.534 5.9 32 17.1 101410 46
2010-09-09 12:52 51°31.46 3°5.629 5.9 24 17.1 101420 46
2010-09-09 12:53 51°31.447 3°5.702 5.5 13 17.1 101420 46
2010-09-09 12:54 51°31.423 3°5.723 8.8 343 17.1 101410 46
2010-09-09 12:55 51°31.419 3°5.596 11.2 334 17 101400 46
2010-09-09 12:56 51°31.407 3°5.331 12.7 332 17.1 101390 46
2010-09-09 12:57 51°31.393 3°5.032 12.1 333 17.2 101400 46
2010-09-09 12:58 51°31.381 3°4.733 11.3 333 17.1 101390 47
2010-09-09 12:59 51°31.37 3°4.437 12.2 333 17.1 101390 47
2010-09-09 13:00 51°31.362 3°4.14 11.8 334 17.1 101390 45
2010-09-09 13:01 51°31.36 3°3.837 12.3 334 17.1 101380 46
2010-09-09 13:02 51°31.358 3°3.543 11 333 17.1 101390 47
2010-09-09 13:03 51°31.357 3°3.243 12.2 332 17.1 101390 47
2010-09-09 13:04 51°31.357 3°2.942 12.7 331 17.1 101390 46
2010-09-09 13:05 51°31.353 3°2.639 11.9 331 17.1 101400 47
2010-09-09 13:06 51°31.349 3°2.347 12.2 333 17.1 101400 46
2010-09-09 13:07 51°31.344 3°2.047 11.8 332 17.1 101400 47
2010-09-09 13:08 51°31.337 3°1.746 12.4 330 17.1 101400 46
2010-09-09 13:09 51°31.33 3°1.438 11.6 332 17 101400 46
2010-09-09 13:10 51°31.323 3°1.134 12.2 331 17.1 101400 47
2010-09-09 13:11 51°31.315 3°0.831 12.5 332 17 101410 46
2010-09-09 13:12 51°31.308 3°0.528 11.5 332 17 101400 47
2010-09-09 13:13 51°31.303 3°0.231 11.2 329 17 101400 46
2010-09-09 13:14 51°31.299 2°59.927 11.5 331 17.1 101410 47
2010-09-09 13:15 51°31.296 2°59.624 12.4 332 17 101400 46
2010-09-09 13:16 51°31.294 2°59.316 11.6 330 17 101390 44
2010-09-09 13:17 51°31.293 2°59.019 11.6 330 17 101400 46
2010-09-09 13:18 51°31.292 2°58.716 11.7 330 17 101400 46
2010-09-09 13:19 51°31.292 2°58.414 11.7 331 17 101410 46
2010-09-09 13:20 51°31.291 2°58.115 12.2 332 17.1 101410 47
2010-09-09 13:21 51°31.291 2°57.818 11.1 331 17.1 101400 46
2010-09-09 13:22 51°31.291 2°57.524 11.2 333 17.1 101420 47
2010-09-09 13:23 51°31.283 2°57.224 11.5 333 17 101410 47
2010-09-09 13:24 51°31.275 2°56.922 12.8 329 17.1 101410 46
2010-09-09 13:25 51°31.272 2°56.619 11.9 303 17.1 101410 47
2010-09-09 13:26 51°31.278 2°56.314 11.2 332 17.1 101420 46
2010-09-09 13:27 51°31.289 2°56.003 12.1 328 17.1 101430 46
2010-09-09 13:28 51°31.305 2°55.688 11.5 301 17 101420 46
2010-09-09 13:29 51°31.32 2°55.372 12.4 329 17.1 101420 47
2010-09-09 13:30 51°31.335 2°55.05 12.2 329 17.1 101420 47
2010-09-09 13:31 51°31.351 2°54.737 12.8 328 17.1 101410 46
2010-09-09 13:32 51°31.366 2°54.419 11.7 330 17.1 101420 45
2010-09-09 13:33 51°31.376 2°54.099 12.3 331 17.1 101420 47
2010-09-09 13:34 51°31.379 2°53.775 11.8 331 17.1 101420 47
2010-09-09 13:35 51°31.382 2°53.463 11.7 330 17.1 101430 46
2010-09-09 13:36 51°31.385 2°53.144 12.2 333 17.1 101420 46
2010-09-09 13:37 51°31.387 2°52.826 12.6 330 17 101420 46
2010-09-09 13:38 51°31.389 2°52.507 12.9 332 17.1 101430 46
2010-09-09 13:39 51°31.391 2°52.191 12.8 332 17 101430 47
2010-09-09 13:40 51°31.395 2°51.872 13 332 17 101430 44
2010-09-09 13:41 51°31.392 2°51.55 12.7 332 17.1 101430 47
2010-09-09 13:42 51°31.385 2°51.237 12.2 331 17.1 101430 46
2010-09-09 13:43 51°31.379 2°50.917 11 331 17.2 101430 47
2010-09-09 13:44 51°31.372 2°50.601 11.5 332 17.2 101430 47
2010-09-09 13:45 51°31.365 2°50.284 11.8 333 17.2 101430 46
2010-09-09 13:46 51°31.357 2°49.969 11.2 333 17.2 101420 47
2010-09-09 13:47 51°31.351 2°49.651 11.1 331 17.2 101440 47
2010-09-09 13:48 51°31.346 2°49.337 12.5 332 17.1 101420 45
2010-09-09 13:49 51°31.338 2°49.024 11.9 330 17.1 101420 46
2010-09-09 13:50 51°31.332 2°48.709 13 333 17.2 101430 47
2010-09-09 13:51 51°31.325 2°48.393 11.6 332 17.2 101440 46
2010-09-09 13:52 51°31.316 2°48.072 12.5 333 17.2 101430 47
2010-09-09 13:53 51°31.319 2°47.825 9.2 328 17.2 101420 46
2010-09-09 13:54 51°31.363 2°47.771 7.2 302 17.2 101440 46
2010-09-09 13:55 51°31.388 2°47.808 6.7 308 17.2 101440 46
2010-09-09 13:56 51°31.408 2°47.854 3.5 307 17.3 101450 45
2010-09-09 13:57 51°31.427 2°47.9 6.9 300 17.3 101450 46
2010-09-09 13:58 51°31.446 2°47.948 6.5 54 17.2 101450 46
2010-09-09 13:59 51°31.467 2°47.998 6.2 53 17.3 101450 45
2010-09-09 14:00 51°31.488 2°48.046 5.8 310 17.3 101450 46
2010-09-09 14:01 51°31.51 2°48.094 5.3 301 17.3 101450 46
2010-09-09 14:02 51°31.533 2°48.142 4.4 307 17.3 101450 47
2010-09-09 14:03 51°31.554 2°48.19 6.6 303 17.3 101450 46
2010-09-09 14:04 51°31.575 2°48.238 5 308 17.3 101450 45
2010-09-09 14:05 51°31.596 2°48.285 5.4 307 17.3 101450 46
2010-09-09 14:06 51°31.617 2°48.329 5 306 17.4 101460 46
2010-09-09 14:07 51°31.636 2°48.376 6.4 307 17.3 101450 46
2010-09-09 14:08 51°31.656 2°48.425 5.9 309 17.4 101460 46
2010-09-09 14:09 51°31.676 2°48.472 4.9 306 17.4 101460 46
2010-09-09 14:10 51°31.697 2°48.519 5.5 304 17.4 101460 48
2010-09-09 14:11 51°31.718 2°48.564 5.3 307 17.4 101460 47
2010-09-09 14:12 51°31.739 2°48.609 4 300 17.4 101460 45
2010-09-09 14:13 51°31.76 2°48.653 4.3 306 17.4 101460 48
2010-09-09 14:14 51°31.782 2°48.695 3.7 301 17.4 101460 46
2010-09-09 14:15 51°31.804 2°48.741 3.6 301 17.4 101460 46
2010-09-09 14:16 51°31.825 2°48.786 7.2 307 17.5 101470 46
2010-09-09 14:17 51°31.847 2°48.833 7 307 17.6 101470 48
2010-09-09 14:18 51°31.869 2°48.88 3.7 306 17.7 101470 47
2010-09-09 14:19 51°31.891 2°48.928 5.2 306 17.7 101470 46
2010-09-09 14:20 51°31.912 2°48.972 4 309 17.6 101470 45
2010-09-09 14:21 51°31.934 2°49.017 4.4 307 17.5 101470 48
2010-09-09 14:22 51°31.955 2°49.061 5.5 307 17.5 101470 46
2010-09-09 14:23 51°31.977 2°49.105 5.5 306 17.5 101470 48
2010-09-09 14:24 51°31.998 2°49.149 4.2 306 17.5 101480 47
2010-09-09 14:25 51°32.019 2°49.194 3.2 307 17.5 101470 46
2010-09-09 14:26 51°32.04 2°49.24 3.3 308 17.5 101470 46
2010-09-09 14:27 51°32.061 2°49.282 5.7 303 17.5 101480 46
2010-09-09 14:28 51°32.081 2°49.325 3.7 303 17.5 101480 45
2010-09-09 14:29 51°32.111 2°49.367 5.5 301 17.4 101470 47
2010-09-09 14:30 51°32.162 2°49.32 7.7 327 17.5 101470 46
2010-09-09 14:31 51°32.123 2°49.151 11.1 338 17.5 101460 47
2010-09-09 14:32 51°32.027 2°48.935 11.3 335 17.5 101450 46
2010-09-09 14:33 51°31.947 2°48.684 11.6 336 17.5 101450 47
2010-09-09 14:34 51°31.863 2°48.426 10.5 336 17.5 101450 47
2010-09-09 14:35 51°31.772 2°48.171 11.7 334 17.5 101450 47
2010-09-09 14:36 51°31.68 2°47.923 11.5 334 17.4 101450 46
2010-09-09 14:37 51°31.587 2°47.673 10.6 337 17.5 101450 46
2010-09-09 14:38 51°31.479 2°47.448 10.4 345 17.4 101450 46
2010-09-09 14:39 51°31.359 2°47.427 6 358 17.5 101470 48
2010-09-09 14:40 51°31.307 2°47.522 3.3 32 17.4 101490 46
2010-09-09 14:41 51°31.305 2°47.66 3.8 38 17.3 101490 48
2010-09-09 14:42 51°31.302 2°47.783 3.9 36 17.2 101500 48
2010-09-09 14:43 51°31.3 2°47.876 4.6 33 17.3 101490 47
2010-09-09 14:44 51°31.303 2°47.957 4.9 38 17.3 101490 47
2010-09-09 14:45 51°31.308 2°48.037 4.4 35 17.3 101500 46
2010-09-09 14:46 51°31.316 2°48.128 4.7 54 17.3 101500 48
2010-09-09 14:47 51°31.329 2°48.229 4.2 40 17.3 101500 46
2010-09-09 14:48 51°31.337 2°48.33 3.9 34 17.3 101500 46
2010-09-09 14:49 51°31.339 2°48.428 4.4 33 17.3 101500 48
2010-09-09 14:50 51°31.34 2°48.526 4.5 36 17.3 101500 48
2010-09-09 14:51 51°31.341 2°48.621 4.9 33 17.3 101500 48
2010-09-09 14:52 51°31.341 2°48.715 5.9 34 17.3 101500 46
2010-09-09 14:53 51°31.342 2°48.812 4.5 33 17.3 101510 48
2010-09-09 14:54 51°31.341 2°48.905 5.2 29 17.3 101510 47
2010-09-09 14:55 51°31.343 2°48.974 5.7 30 17.4 101500 47
2010-09-09 14:56 51°31.341 2°49.035 6.1 17 17.2 101500 47
2010-09-09 14:57 51°31.262 2°49.126 7.1 2 17.3 101500 48
2010-09-09 14:58 51°31.092 2°49.201 9.8 355 17.3 101480 46
2010-09-09 14:59 51°30.897 2°49.266 10.5 353 17.3 101470 47
2010-09-09 15:00 51°30.704 2°49.339 10.8 356 17.2 101470 47
2010-09-09 15:01 51°30.51 2°49.412 10.4 355 17.2 101480 47
2010-09-09 15:02 51°30.315 2°49.491 9.2 357 17.1 101470 48
2010-09-09 15:03 51°30.127 2°49.569 10.3 355 17.1 101480 48
2010-09-09 15:04 51°29.936 2°49.647 9.7 357 17 101480 47
2010-09-09 15:05 51°29.743 2°49.73 9.6 357 17 101480 48
2010-09-09 15:06 51°29.552 2°49.82 10.3 357 17 101490 47
2010-09-09 15:07 51°29.362 2°49.911 9.3 357 17.1 101490 46
2010-09-09 15:08 51°29.169 2°49.996 9.4 353 17.1 101480 46
2010-09-09 15:09 51°28.976 2°50.082 11 358 17.1 101480 47
2010-09-09 15:10 51°28.783 2°50.166 10.1 356 17.1 101480 47
2010-09-09 15:11 51°28.587 2°50.248 11.1 353 17.1 101480 47
2010-09-09 15:12 51°28.391 2°50.332 11.8 354 17 101470 46
2010-09-09 15:13 51°28.194 2°50.415 9.8 358 17 101480 46
2010-09-09 15:14 51°27.999 2°50.496 11 353 17 101490 47
2010-09-09 15:15 51°27.805 2°50.577 9.4 354 17 101490 47
2010-09-09 15:16 51°27.61 2°50.657 10 356 17 101490 45
2010-09-09 15:17 51°27.415 2°50.735 11.1 356 17.1 101490 46
2010-09-09 15:18 51°27.222 2°50.814 10.7 355 17 101500 47
2010-09-09 15:19 51°27.028 2°50.892 9.7 356 17.1 101490 47
2010-09-09 15:20 51°26.835 2°50.971 10.6 358 17.1 101500 46
2010-09-09 15:21 51°26.642 2°51.053 11.3 358 17 101490 47
2010-09-09 15:22 51°26.446 2°51.132 10.6 355 17 101490 47
2010-09-09 15:23 51°26.25 2°51.211 12.1 355 17 101490 47
2010-09-09 15:24 51°26.053 2°51.27 12.2 356 17.1 101490 45
2010-09-09 15:25 51°25.855 2°51.316 11.5 352 17.1 101500 46
2010-09-09 15:26 51°25.656 2°51.356 11.6 356 17 101500 46
2010-09-09 15:27 51°25.457 2°51.393 11.2 355 17.1 101490 47
2010-09-09 15:28 51°25.258 2°51.43 10.3 358 17.1 101480 47
2010-09-09 15:29 51°25.062 2°51.472 11.8 356 17 101490 47
2010-09-09 15:30 51°24.864 2°51.511 10.5 357 17.1 101500 47
2010-09-09 15:31 51°24.667 2°51.548 11.2 354 17.1 101500 47
2010-09-09 15:32 51°24.468 2°51.586 9.7 355 17 101500 46
2010-09-09 15:33 51°24.269 2°51.62 11 356 17.1 101490 47
2010-09-09 15:34 51°24.069 2°51.649 10.4 353 17 101500 47
2010-09-09 15:35 51°23.869 2°51.668 11.5 353 17.1 101500 47
2010-09-09 15:36 51°23.67 2°51.686 10.8 352 17.1 101510 47
2010-09-09 15:37 51°23.473 2°51.705 11.6 355 17.1 101500 46
2010-09-09 15:38 51°23.274 2°51.727 11.2 354 17.1 101510 47
2010-09-09 15:39 51°23.075 2°51.75 10.8 354 17.1 101500 47
2010-09-09 15:40 51°22.874 2°51.774 9.3 355 17.1 101510 45
2010-09-09 15:41 51°22.672 2°51.799 11.7 358 17.1 101500 46
2010-09-09 15:42 51°22.47 2°51.822 10.5 353 17.2 101500 46
2010-09-09 15:43 51°22.271 2°51.844 10.8 354 17.2 101500 48
2010-09-09 15:44 51°22.073 2°51.869 9.3 354 17.2 101510 48
2010-09-09 15:45 51°21.872 2°51.889 10.4 354 17.2 101500 46
2010-09-09 15:46 51°21.67 2°51.911 9.9 356 17.2 101510 47
2010-09-09 15:47 51°21.467 2°51.93 10.8 354 17.1 101500 47
2010-09-09 15:48 51°21.264 2°51.95 11.7 357 17.2 101500 46
2010-09-09 15:49 51°21.06 2°51.969 11.2 356 17.2 101500 47
2010-09-09 15:50 51°20.857 2°51.983 9.8 357 17.2 101510 48
2010-09-09 15:51 51°20.651 2°51.995 11.2 356 17.2 101500 47
2010-09-09 15:52 51°20.446 2°52.007 9.4 358 17.2 101510 47
2010-09-09 15:53 51°20.241 2°52.018 11.1 357 17.2 101520 47
2010-09-09 15:54 51°20.037 2°52.031 10 358 17.2 101500 47
2010-09-09 15:55 51°19.828 2°52.058 10.8 356 17.2 101510 47
2010-09-09 15:56 51°19.626 2°52.089 10.8 357 17.2 101520 46
2010-09-09 15:57 51°19.42 2°52.118 9.9 356 17.2 101520 48
2010-09-09 15:58 51°19.215 2°52.141 9.4 354 17.2 101510 48
2010-09-09 15:59 51°19.01 2°52.163 10.8 358 17.2 101520 48
2010-09-09 16:00 51°18.805 2°52.184 11 356 17.2 101520 47
2010-09-09 16:01 51°18.601 2°52.206 9.7 357 17.1 101520 47
2010-09-09 16:02 51°18.396 2°52.224 10.4 357 17.2 101530 47
2010-09-09 16:03 51°18.191 2°52.242 10.4 355 17.2 101530 47
2010-09-09 16:04 51°17.986 2°52.26 10.4 355 17.2 101530 45
2010-09-09 16:05 51°17.782 2°52.278 9.8 357 17.2 101530 47
2010-09-09 16:06 51°17.578 2°52.3 9.7 358 17.2 101530 47
2010-09-09 16:07 51°17.374 2°52.321 9.5 359 17.2 101530 47
2010-09-09 16:08 51°17.179 2°52.404 7.2 1 17.2 101530 47
2010-09-09 16:09 51°16.997 2°52.56 7.2 5 17.3 101550 47
2010-09-09 16:10 51°16.805 2°52.693 7.6 357 17.3 101550 47
2010-09-09 16:11 51°16.61 2°52.817 8.1 3 17.3 101550 47
2010-09-09 16:12 51°16.419 2°52.948 8.5 7 17.2 101540 45
2010-09-09 16:13 51°16.23 2°53.099 6.1 5 17.2 101550 48
2010-09-09 16:14 51°16.042 2°53.254 7.2 5 17.3 101550 46
2010-09-09 16:15 51°15.858 2°53.418 9.9 9 17.3 101550 47
2010-09-09 16:16 51°15.685 2°53.619 6.1 8 17.3 101560 46
2010-09-09 16:17 51°15.517 2°53.829 6.7 9 17.3 101560 46
2010-09-09 16:18 51°15.347 2°54.031 8 9 17.3 101560 47
2010-09-09 16:19 51°15.175 2°54.234 4.8 5 17.3 101560 46
2010-09-09 16:20 51°15.005 2°54.437 5.7 4 17.4 101560 45
2010-09-09 16:21 51°14.839 2°54.646 5.9 6 17.4 101560 47
2010-09-09 16:22 51°14.669 2°54.843 6.3 5 17.3 101560 47
2010-09-09 16:23 51°14.501 2°55.027 5.9 6 17.4 101560 46
2010-09-09 16:24 51°14.333 2°55.218 6.3 5 17.4 101560 48
2010-09-09 16:25 51°14.173 2°55.37 5 347 17.4 101570 48
2010-09-09 16:26 51°14.038 2°55.473 3.8 346 17.5 101580 48
2010-09-09 16:27 51°13.929 2°55.552 3.6 351 17.5 101570 48
2010-09-09 16:28 51°13.829 2°55.629 5.2 1 17.6 101580 47
2010-09-09 16:29 51°13.75 2°55.731 1.5 21 17.7 101580 48
2010-09-09 16:30 51°13.699 2°55.833 3.2 35 17.7 101580 47
2010-09-09 16:31 51°13.669 2°55.932 4.2 52 17.7 101580 46
2010-09-09 16:32 51°13.662 2°55.958 5.9 59 17.8 101580 48